Location: Crescent
(42.8242°N, 73.7329°W)
Time: 14:58:59
(UTC+00:00)

Courier 1B - Pass Details

Date: 20 February 2026
Orbit: 962 x 1208 km, 28.3° (Epoch: 7 March)

Event Time Altitude Azimuth Distance (km) Brightness Sun altitude
Rises 01:12:23 0° 240° (WSW) 3,896 11.3 -30.0°
Reaches altitude 10° 01:15:34 10° 228° (SW) 2,980 10.4 -30.5°
Enters shadow 01:20:22 25° 188° (S) 2,125 9.1 -31.4°
